[[{"header":{"parameterUnit":"m.s-1","parameterCategory":1,"la1":30.2991,"la2":30.254,"lo1":-89.0895,"lo2":-89.0444,"dy":0.0017,"dx":0.0017,"nx":28,"ny":28,"refTime":"2023-09-17T03:00:00:Z","depth":0,"parameterNumber":2,"parameterNumberName":"U-component_of_WINDS"},"data":[0,0,0,0,0,0,0,0,0,0,0,0,0,0,0,0,0,0,0,0,0,0,0,0,0,0,0,0,0,0,0,0,0,0,0,0,0,0,0,0,0,0,0,0,0,0,0,0,0,0,0,0,0,0,0,0,0,0,-0.5019,-0.5018,0,-0.4961,-0.4961,-0.496,-0.4887,-0.4886,-0.4885,-0.4883,-0.4824,-0.4824,-0.4823,0,0,0,0,0,0,0,0,0,0,0,0,0,-0.5066,-0.5065,-0.5019,-0.5018,-0.5017,-0.4961,-0.496,-0.496,-0.4887,-0.4886,-0.4884,-0.4883,-0.4825,-0.4824,-0.4823,0,0,0,0,0,0,0,0,0,0,0,0,0,-0.5031,-0.5065,-0.5019,-0.4974,-0.497,-0.4961,-0.496,-0.4959,-0.4887,-0.4886,-0.4884,-0.4882,-0.4825,-0.4824,-0.4823,-0.4854,0,0,-0.4821,-0.4821,0,0,0,0,0,0,0,0,-0.5033,-0.5029,-0.4982,-0.4977,-0.4972,-0.4929,-0.4955,-0.4924,-0.4888,-0.4919,-0.4883,-0.4881,-0.4861,-0.4857,-0.485,-0.4851,-0.4849,-0.4821,-0.4821,-0.482,-0.482,0,0,0,0,0,0,0,-0.5035,-0.5031,-0.4996,-0.4981,-0.4975,-0.4957,-0.495,-0.4949,-0.49,-0.4916,-0.491,-0.4905,-0.4858,-0.4851,-0.4848,-0.4848,-0.4821,-0.482,-0.482,-0.482,-0.4872,-0.4873,0,0,0,0,0,0,-0.5044,-0.5033,-0.4998,-0.4994,-0.4999,-0.4958,-0.495,-0.4945,-0.49,-0.4892,-0.4906,-0.4901,-0.4853,-0.4849,-0.4846,-0.4879,-0.482,-0.482,-0.4819,-0.487,-0.4872,-0.4874,0,0,0,0,0,0,-0.5046,-0.5042,-0.5,-0.5012,-0.5006,-0.4959,-0.4954,-0.4945,-0.4938,-0.4893,-0.4884,-0.4908,-0.4851,-0.4847,-0.4853,-0.4876,-0.4819,-0.4819,-0.4868,-0.4871,-0.4873,-0.4947,0,0,0,0,0,0,-0.5047,-0.5043,-0.5054,-0.5013,-0.5005,-0.5008,-0.4955,-0.4945,-0.4937,-0.493,-0.4892,-0.4884,-0.485,-0.4854,-0.4852,-0.4874,-0.4818,-0.4865,-0.4869,-0.4872,-0.4942,-0.4952,-0.496,0,0,0,0,0,-0.5049,-0.5077,-0.5055,-0.5051,-0.5019,-0.501,-0.5005,-0.4965,-0.4939,-0.495,-0.4921,-0.4885,-0.4874,-0.4855,-0.4852,-0.4875,-0.4864,-0.4868,-0.4872,-0.4938,-0.495,-0.496,0,0,0,0,0,0,-0.5122,-0.5071,-0.5046,-0.5061,-0.5041,-0.4998,-0.501,-0.4979,-0.4965,-0.4959,-0.491,-0.4902,-0.4914,-0.4894,-0.4875,-0.4902,-0.4863,-0.4867,-0.4915,-0.4925,-0.4934,-0.4939,-0.4818,0,0,0,0,0,-0.514,-0.5137,-0.5092,-0.511,-0.5101,-0.5058,-0.5052,-0.5023,-0.5,-0.4991,-0.4962,-0.494,-0.4932,-0.4927,-0.4917,-0.4938,-0.4929,-0.4952,-0.4961,-0.4969,-0.4973,-0.4983,-0.4993,-0.4887,-0.4887,-0.4887,0,0,-0.5177,-0.5148,-0.515,-0.5124,-0.5105,-0.5103,-0.5051,-0.5051,-0.505,-0.499,-0.4995,-0.4973,-0.4945,-0.496,-0.4964,-0.4944,-0.5,-0.4974,-0.498,-0.498,-0.4988,-0.4999,-0.5007,-0.489,-0.489,-0.4889,0,0,-0.5244,-0.5222,-0.5234,-0.5216,-0.5187,-0.5158,-0.5161,-0.5122,-0.5106,-0.5109,-0.5065,-0.5062,-0.5048,-0.503,-0.502,-0.5079,-0.5047,-0.5077,-0.5125,-0.5135,-0.5144,-0.5151,-0.5173,-0.5182,-0.5081,-0.5081,-0.5082,0,-0.5293,-0.5289,-0.5245,-0.5248,-0.5239,-0.5185,-0.5197,-0.5181,-0.5151,-0.5145,-0.5122,-0.5104,-0.5082,-0.5091,-0.5106,-0.5098,-0.5101,-0.5082,-0.5146,-0.5153,-0.5159,-0.5179,-0.5188,-0.5085,-0.5085,-0.5085,-0.5084,0,-0.5352,-0.535,-0.5364,-0.5336,-0.5327,-0.5335,-0.5292,-0.5289,-0.526,-0.5234,-0.5238,-0.5209,-0.5192,-0.5191,-0.5163,-0.5197,-0.5185,-0.5155,-0.5115,-0.5174,-0.5192,-0.52,-0.5091,-0.509,-0.5089,-0.5088,0,0,-0.5465,-0.5411,-0.5417,-0.5404,-0.5368,-0.5365,-0.5371,-0.5354,-0.5353,-0.5333,-0.5337,-0.5326,-0.5297,-0.5285,-0.5255,-0.5264,-0.5314,-0.5232,-0.5231,-0.525,-0.535,-0.5375,-0.5385,-0.5291,-0.5293,-0.5294,-0.5353,0,-0.5526,-0.5532,-0.5493,-0.551,-0.5508,-0.5456,-0.5461,-0.5439,-0.5414,-0.5408,-0.538,-0.5374,-0.5336,-0.5329,-0.5336,-0.5307,-0.5334,-0.5302,-0.5295,-0.5296,-0.5305,-0.5394,-0.542,-0.5477,-0.536,-0.5361,-0.5362,0,-0.5598,-0.5583,-0.56,-0.5563,-0.556,-0.5566,-0.5547,-0.5542,-0.5516,-0.5497,-0.5484,-0.5448,-0.5451,-0.5413,-0.5416,-0.5395,-0.539,-0.5375,-0.5376,-0.5375,-0.5334,-0.5397,-0.5494,-0.5504,-0.5373,-0.5372,-0.5371,0,-0.568,-0.5663,-0.5671,-0.5661,-0.5618,-0.5623,-0.5605,-0.5577,-0.557,-0.5554,-0.5548,-0.5533,-0.5525,-0.5513,-0.5474,-0.545,-0.5483,-0.5441,-0.5468,-0.5469,-0.5478,-0.5478,-0.5578,-0.5473,-0.5473,-0.5472,-0.5472,0,-0.5753,-0.5766,-0.5707,-0.5713,-0.5726,-0.5679,-0.5693,-0.567,-0.5646,-0.5646,-0.56,-0.5601,-0.5549,-0.5544,-0.5513,-0.5522,-0.5518,-0.5503,-0.5495,-0.5508,-0.551,-0.5505,-0.5501,-0.5475,-0.5474,-0.5474,-0.5473,0,-0.5847,-0.5808,-0.5814,-0.5772,-0.5762,-0.5774,-0.5738,-0.5741,-0.5713,-0.5714,-0.5711,-0.5667,-0.5659,-0.5618,-0.5601,-0.558,-0.5599,-0.5582,-0.5608,-0.5603,-0.5633,-0.5632,-0.5734,-0.5746,-0.5632,-0.5633,-0.5634,0,-0.5897,-0.5906,-0.5865,-0.5862,-0.5846,-0.5841,-0.5833,-0.5788,-0.5782,-0.5753,-0.576,-0.5748,-0.5736,-0.5726,-0.5692,-0.5678,-0.5661,-0.5698,-0.5659,-0.5672,-0.5664,-0.5664,-0.5665,-0.5707,-0.5709,-0.571,-0.5711,0,-0.599,-0.5971,-0.5961,-0.5945,-0.5937,-0.5922,-0.5905,-0.5905,-0.5854,-0.5849,-0.5841,-0.5832,-0.5813,-0.5803,-0.5783,-0.5764,-0.573,-0.5723,-0.5729,-0.5743,-0.5758,-0.5752,-0.5633,-0.5721,-0.572,-0.572,-0.5719,-0.5719,-0.6064,-0.607,-0.6043,-0.6034,-0.6015,-0.6,-0.6001,-0.5973,-0.5965,-0.5947,-0.592,-0.5915,-0.5889,-0.5859,-0.5843,-0.5839,-0.5819,-0.5827,-0.5829,-0.5832,-0.584,-0.5758,-0.5835,-0.5835,-0.5834,-0.5834,-0.5834,0,-0.6156,-0.6136,-0.6128,-0.6105,-0.6098,-0.6065,-0.6044,-0.6041,-0.6037,-0.6015,-0.6004,-0.5995,-0.5984,-0.5949,-0.5934,-0.5938,-0.5921,-0.5936,-0.5936,-0.5932,-0.5858,-0.5855,-0.5949,-0.5949,-0.5949,-0.5949,-0.5949,-0.5949,-0.6204,-0.6212,-0.6189,-0.6187,-0.6166,-0.6161,-0.6152,-0.6138,-0.612,-0.6111,-0.6102,-0.6079,-0.6053,-0.6036,-0.6024,-0.6014,-0.6012,-0.6032,-0.6017,-0.5948,-0.5937,-0.5927,-0.5924,-0.6031,-0.6031,-0.6092,-0.6092,-0.6093]},{"header":{"parameterUnit":"m.s-1","parameterCategory":1,"la1":30.2991,"la2":30.254,"lo1":-89.0895,"lo2":-89.0444,"dy":0.0017,"dx":0.0017,"nx":28,"ny":28,"refTime":"2023-09-17T03:00:00:Z","depth":0,"parameterNumber":3,"parameterNumberName":"V-component_of_WINDS"},"data":[0,0,0,0,0,0,0,0,0,0,0,0,0,0,0,0,0,0,0,0,0,0,0,0,0,0,0,0,0,0,0,0,0,0,0,0,0,0,0,0,0,0,0,0,0,0,0,0,0,0,0,0,0,0,0,0,0,0,-1.3254,-1.3254,0,-1.3307,-1.3308,-1.3308,-1.3356,-1.3357,-1.3357,-1.3358,-1.3412,-1.3412,-1.3413,0,0,0,0,0,0,0,0,0,0,0,0,0,-1.3193,-1.3194,-1.3253,-1.3254,-1.3255,-1.3307,-1.3308,-1.3308,-1.3356,-1.3357,-1.3358,-1.3358,-1.3411,-1.3412,-1.3413,0,0,0,0,0,0,0,0,0,0,0,0,0,-1.323,-1.3194,-1.3253,-1.3285,-1.3288,-1.3307,-1.3308,-1.3309,-1.3356,-1.3357,-1.3358,-1.3358,-1.3411,-1.3412,-1.3414,-1.3405,0,0,-1.3418,-1.3418,0,0,0,0,0,0,0,0,-1.3228,-1.3232,-1.328,-1.3283,-1.3287,-1.3326,-1.3306,-1.3341,-1.3356,-1.333,-1.3358,-1.3359,-1.3382,-1.3386,-1.3394,-1.3407,-1.341,-1.3418,-1.3419,-1.3419,-1.342,0,0,0,0,0,0,0,-1.3225,-1.323,-1.3275,-1.328,-1.3285,-1.3297,-1.3303,-1.3313,-1.3351,-1.3333,-1.3336,-1.3342,-1.3384,-1.3393,-1.3396,-1.341,-1.3418,-1.3419,-1.342,-1.342,-1.3422,-1.3421,0,0,0,0,0,0,-1.3218,-1.3228,-1.3273,-1.3276,-1.3259,-1.3297,-1.3304,-1.3312,-1.3351,-1.3358,-1.3341,-1.3344,-1.339,-1.3394,-1.3398,-1.3392,-1.3419,-1.342,-1.3421,-1.3423,-1.3422,-1.3421,0,0,0,0,0,0,-1.3216,-1.3222,-1.3271,-1.3253,-1.326,-1.3297,-1.3306,-1.3313,-1.3322,-1.3357,-1.3364,-1.3343,-1.3391,-1.3396,-1.3403,-1.3395,-1.3421,-1.3422,-1.3424,-1.3423,-1.3421,-1.338,0,0,0,0,0,0,-1.3215,-1.3221,-1.3217,-1.3253,-1.3261,-1.3275,-1.3306,-1.3313,-1.3324,-1.3328,-1.3361,-1.3367,-1.3392,-1.3401,-1.3405,-1.3397,-1.3423,-1.3425,-1.3423,-1.3422,-1.3382,-1.3377,-1.3373,0,0,0,0,0,-1.3212,-1.3203,-1.3217,-1.3222,-1.3258,-1.3275,-1.3279,-1.3309,-1.3323,-1.332,-1.3344,-1.3366,-1.3395,-1.3402,-1.3406,-1.3399,-1.3425,-1.3424,-1.3422,-1.3384,-1.3378,-1.3373,0,0,0,0,0,0,-1.3165,-1.3208,-1.3224,-1.3226,-1.3246,-1.3283,-1.328,-1.3301,-1.3318,-1.3321,-1.3356,-1.3363,-1.3367,-1.3383,-1.339,-1.3394,-1.3413,-1.3412,-1.3383,-1.3378,-1.3373,-1.337,-1.3424,0,0,0,0,0,-1.3154,-1.3164,-1.3202,-1.3199,-1.3209,-1.3243,-1.3251,-1.3272,-1.3295,-1.3303,-1.3327,-1.3348,-1.3362,-1.3371,-1.3385,-1.3384,-1.3393,-1.3382,-1.3377,-1.3374,-1.3373,-1.3376,-1.3372,-1.3415,-1.3415,-1.3416,0,0,-1.3133,-1.3158,-1.3162,-1.3191,-1.3209,-1.3219,-1.325,-1.3258,-1.3267,-1.3304,-1.3314,-1.3332,-1.3358,-1.3362,-1.3365,-1.3376,-1.3363,-1.3371,-1.3368,-1.3369,-1.3374,-1.337,-1.3366,-1.3414,-1.3415,-1.3415,0,0,-1.31,-1.3119,-1.3121,-1.3139,-1.3167,-1.319,-1.319,-1.3224,-1.3238,-1.3248,-1.3277,-1.3288,-1.331,-1.3329,-1.3341,-1.3317,-1.3339,-1.332,-1.3298,-1.3301,-1.3297,-1.3294,-1.3288,-1.3285,-1.3319,-1.3319,-1.3319,0,-1.3071,-1.3087,-1.3119,-1.3127,-1.314,-1.3175,-1.3178,-1.3194,-1.3224,-1.3233,-1.3244,-1.3276,-1.3295,-1.3305,-1.33,-1.3308,-1.331,-1.3317,-1.3295,-1.3293,-1.329,-1.3285,-1.3282,-1.3317,-1.3317,-1.3317,-1.3318,0,-1.305,-1.3061,-1.3059,-1.309,-1.3102,-1.3107,-1.314,-1.3149,-1.3169,-1.3191,-1.3202,-1.3227,-1.3248,-1.3252,-1.3271,-1.3265,-1.3272,-1.3288,-1.3309,-1.3284,-1.3279,-1.3277,-1.3314,-1.3315,-1.3315,-1.3316,0,0,-1.2989,-1.3038,-1.3037,-1.3052,-1.3086,-1.3096,-1.3103,-1.3125,-1.3133,-1.3153,-1.3161,-1.3181,-1.3198,-1.3211,-1.3233,-1.3235,-1.3218,-1.3253,-1.3254,-1.3247,-1.3216,-1.3204,-1.3201,-1.3232,-1.3232,-1.3231,-1.3214,0,-1.2963,-1.2979,-1.3008,-1.3015,-1.3027,-1.3062,-1.3068,-1.309,-1.3111,-1.3125,-1.3148,-1.3162,-1.3182,-1.3191,-1.3194,-1.3219,-1.3212,-1.322,-1.3241,-1.3241,-1.3235,-1.3198,-1.3185,-1.3167,-1.3212,-1.3212,-1.3212,0,-1.2935,-1.2955,-1.2963,-1.2999,-1.3005,-1.301,-1.3034,-1.3046,-1.3072,-1.3087,-1.3104,-1.3128,-1.3139,-1.3157,-1.3173,-1.3178,-1.3188,-1.3202,-1.3202,-1.3206,-1.3226,-1.3203,-1.3162,-1.316,-1.3209,-1.3209,-1.3209,0,-1.2892,-1.292,-1.293,-1.2941,-1.2982,-1.2986,-1.3003,-1.303,-1.3042,-1.3063,-1.3072,-1.3093,-1.3105,-1.3121,-1.3151,-1.3161,-1.3165,-1.3185,-1.3179,-1.3178,-1.3179,-1.3179,-1.3141,-1.3182,-1.3183,-1.3183,-1.3183,0,-1.2861,-1.2865,-1.2911,-1.2917,-1.2923,-1.2957,-1.2963,-1.2983,-1.3007,-1.3018,-1.3049,-1.3059,-1.3097,-1.3111,-1.3134,-1.3146,-1.315,-1.3164,-1.317,-1.3162,-1.316,-1.317,-1.3173,-1.3182,-1.3182,-1.3182,-1.3182,0,-1.2815,-1.2845,-1.2858,-1.2896,-1.2906,-1.2909,-1.2942,-1.295,-1.2973,-1.2987,-1.2992,-1.3028,-1.3047,-1.3078,-1.3106,-1.3122,-1.3129,-1.3139,-1.312,-1.3125,-1.3118,-1.3119,-1.3086,-1.3085,-1.3125,-1.3125,-1.3124,0,-1.2794,-1.2798,-1.2837,-1.2847,-1.2864,-1.2879,-1.2892,-1.2926,-1.2938,-1.297,-1.2974,-1.2995,-1.3014,-1.3043,-1.3072,-1.3094,-1.3105,-1.3093,-1.3109,-1.3101,-1.3108,-1.3108,-1.3109,-1.3089,-1.3088,-1.3088,-1.3088,0,-1.2754,-1.277,-1.2787,-1.2811,-1.2826,-1.2846,-1.2867,-1.2874,-1.2913,-1.2925,-1.2945,-1.296,-1.2989,-1.3011,-1.3037,-1.3056,-1.3079,-1.3082,-1.3082,-1.3075,-1.3065,-1.3072,-1.3112,-1.3083,-1.3083,-1.3084,-1.3084,-1.3084,-1.2721,-1.2727,-1.2757,-1.2776,-1.2796,-1.2816,-1.2826,-1.2851,-1.2868,-1.2895,-1.2914,-1.2933,-1.2961,-1.2999,-1.3017,-1.3033,-1.3043,-1.3042,-1.3043,-1.3042,-1.304,-1.3061,-1.3037,-1.3038,-1.3038,-1.3038,-1.3038,0,-1.2685,-1.2706,-1.2723,-1.2753,-1.2769,-1.2789,-1.2815,-1.2826,-1.2843,-1.2868,-1.2886,-1.291,-1.2932,-1.2963,-1.2987,-1.2994,-1.3006,-1.3,-1.3,-1.3005,-1.3029,-1.3027,-1.299,-1.299,-1.299,-1.299,-1.299,-1.299,-1.2668,-1.268,-1.27,-1.2723,-1.2744,-1.2764,-1.2777,-1.2796,-1.2816,-1.2841,-1.286,-1.288,-1.2908,-1.2935,-1.2956,-1.2965,-1.2973,-1.2964,-1.2976,-1.2998,-1.3003,-1.3007,-1.3006,-1.2965,-1.2965,-1.2951,-1.2951,-1.2951]}]]